Miscellaneous Local Product
Issued by NWS North Platte, NE

Home | Current Version | Previous Version | Graphics & Text | Print | Product List | Glossary On
Versions: 1 2 3 4 5 6 7 8 9 10 11 12 13 14 15 16 17 18 19 20 21 22 23 24 25 26 27 28 29 30 31 32 33 34 35 36 37 38 39 40 41 42 43 44 45 46 47 48 49 50
000
AXUS43 KLBF 191410
MISLBF


WESTERN AND NORTH CENTRAL NEBRASKA HOURLY WEATHER ROUNDUP
NATIONAL WEATHER SERVICE NORTH PLATTE NE
800 AM CST SUN NOV 19 2017

NOTE: "FAIR" INDICATES FEW OR NO CLOUDS BELOW 12,000 FEET WITH NO
SIGNIFICANT WEATHER AND/OR OBSTRUCTIONS TO VISIBILITY.

NOTE: STATIONS NOT REPORTING VARIABLES SUCH AS SKY/WEATHER OR
PRESSURE ARE PROVIDED BY RAWS AND APRS NETWORKS AND ARE NOT UNDER
NATIONAL WEATHER SERVICE QUALITY CONTROL.

...OBSERVATIONS IN AND NEAR THE EASTERN PANHANDLE OF NEBRASKA...

CITY           SKY/WX    TMP DP  RH WIND       PRES   REMARKS
PINE RIDGE     CLEAR     22  15  75 W5        30.05S WCI  16
GORDON         FAIR      24  18  79 W7        30.04F WCI  16
CHADRON        CLEAR     21  16  81 CALM      30.06S
ALLIANCE       CLOUDY    15  12  88 W6        30.07F WCI   6
SIDNEY         CLOUDY    20  14  77 W9        30.12F WCI   9
CRESCENT LAKE    N/A     27  16  63 SW3         N/A
$$

...OBSERVATIONS IN NORTHERN NEBRASKA AND FAR SOUTHERN SOUTH DAKOTA...

CITY           SKY/WX    TMP DP  RH WIND       PRES   REMARKS
WINNER         FAIR      29  20  69 SW9       30.05F WCI  20
VALENTINE      CLEAR     24  18  77 W10       30.07S WCI  14
THEDFORD       CLEAR     27  20  77 CALM      30.10S
AINSWORTH      CLEAR     26  22  82 SW8       30.07S WCI  18
O`NEILL        CLEAR     24  21  90 SW5       30.10S WCI  18
ORD            CLOUDY    18  16  92 SW3       30.13F
BROKEN BOW     CLEAR     30  19  63 W9        30.12S WCI  22
VALENTINE NWR    N/A     24  18  78 SW5         N/A  WCI  18
HALSEY           N/A     26  18  72 CALM        N/A
BUTTE            N/A     25  20  81 SW5         N/A  WCI  19
CHAMBERS         N/A     25  20  80 CALM        N/A
EWING            N/A     23  21  93 CALM        N/A
$$

...OBSERVATIONS IN SOUTHWEST NEBRASKA AND FAR NORTHEAST COLORADO...

CITY           SKY/WX    TMP DP  RH WIND       PRES   REMARKS
HOLYOKE        FAIR      23  18  80 SW3       30.15S
IMPERIAL       CLOUDY    25  17  72 W8        30.16F WCI  16
OGALLALA       CLOUDY    18  15  88 W6        30.14F WCI  10
NORTH PLATTE   CLOUDY    18  14  84 W5        30.15F WCI  11
MCCOOK         CLOUDY    23  20  88 W10       30.19F WCI  12
LEXINGTON      CLOUDY    22  19  86 W6        30.17S WCI  15
STAPLETON        N/A     24  18  78 CALM        N/A
GOTHENBURG       N/A     22  17  80 W3          N/A
CALLAWAY         N/A     29  22  75 W12         N/A  WCI  19
$$

...OBSERVATIONS IN CENTRAL LINCOLN COUNTY AREA...

CITY           SKY/WX    TMP DP  RH WIND       PRES   REMARKS
N.P. AIRPORT   CLOUDY    18  14  84 W5        30.15F WCI  11
N.P. DOWNTOWN    N/A     24  19  80 CALM        N/A
N.P. SOUTHEAST   N/A     24  18  76 CALM        N/A
N.P. HILLCREST   N/A     22  18  84 W5          N/A  WCI  16
$$

...SOME OBSERVATIONS FROM AROUND THE REGION...

CITY           SKY/WX    TMP DP  RH WIND       PRES   REMARKS
DENVER         CLOUDY    36  13  38 S13       30.14F WCI  27
LIMON          CLOUDY    15  13  91 N6        30.18S WCI   6
ASPEN          CLOUDY    12   6  77 SE5       30.33R WCI   4
LARAMIE        CLOUDY    24  11  57 SW15      30.15S WCI  11
CASPER         CLOUDY    30  14  51 SW20      30.08S WCI  17
CHEYENNE       CLOUDY    37  10  32 W16G25    30.11F WCI  28
SCOTTSBLUFF    CLOUDY    18  12  77 NE6       30.10F WCI  10
GRAND ISLAND   CLEAR     28  22  78 SW7       30.17S WCI  21
OMAHA          PTCLDY    25  19  78 SE9       30.21S WCI  15
SIOUX FALLS    CLOUDY    27  19  72 SW5       30.08S WCI  22
PIERRE         CLEAR     23  19  85 VRB5      30.01F WCI  17
RAPID CITY     CLOUDY    19  11  70 CALM      29.98F
BISMARCK       CLOUDY    21  18  88 SW6       29.92F WCI  13
KANSAS CITY    CLEAR     29  24  82 SW6       30.26R WCI  23
HILL CITY      CLEAR     25  19  78 W6        30.23S WCI  18
WICHITA        CLEAR     29  25  85 CALM      30.30R
DODGE CITY     CLOUDY    25  15  66 S6        30.26S WCI  18
OKLAHOMA CITY  PTCLDY    30  26  85 SW3       30.34R
DALLAS         CLEAR     45  35  68 NW6       30.36R
AMARILLO       CLOUDY    27  16  63 S10       30.31F WCI  17
$$




USA.gov is the U.S. government's official web portal to all federal, state and local government web resources and services.